Index of /20260425/WXO-DD/model_caps/3km/12/029
Name Last modified Size Description
Parent Directory -
20260425T12Z_MSC_CAPS_AbsoluteVorticity_IsbL-0250_RLatLon0.03_PT029H.grib2 2026-04-25 18:19 1.0M
20260425T12Z_MSC_CAPS_AbsoluteVorticity_IsbL-0500_RLatLon0.03_PT029H.grib2 2026-04-25 18:19 1.3M
20260425T12Z_MSC_CAPS_AbsoluteVorticity_IsbL-0700_RLatLon0.03_PT029H.grib2 2026-04-25 18:19 1.3M
20260425T12Z_MSC_CAPS_AbsoluteVorticity_IsbL-0850_RLatLon0.03_PT029H.grib2 2026-04-25 18:19 1.2M
20260425T12Z_MSC_CAPS_AbsoluteVorticity_IsbL-1000_RLatLon0.03_PT029H.grib2 2026-04-25 18:19 1.4M
20260425T12Z_MSC_CAPS_AirDensity_AGL-120m_RLatLon0.03_PT029H.grib2 2026-04-25 18:19 1.5M
20260425T12Z_MSC_CAPS_AirDensity_AGL-40m_RLatLon0.03_PT029H.grib2 2026-04-25 18:19 1.5M
20260425T12Z_MSC_CAPS_AirDensity_AGL-80m_RLatLon0.03_PT029H.grib2 2026-04-25 18:19 1.5M
20260425T12Z_MSC_CAPS_AirTemp_AGL-120m_RLatLon0.03_PT029H.grib2 2026-04-25 18:19 1.8M
20260425T12Z_MSC_CAPS_AirTemp_AGL-2m_RLatLon0.03_PT029H.grib2 2026-04-25 18:19 2.1M
20260425T12Z_MSC_CAPS_AirTemp_AGL-40m_RLatLon0.03_PT029H.grib2 2026-04-25 18:19 1.9M
20260425T12Z_MSC_CAPS_AirTemp_AGL-80m_RLatLon0.03_PT029H.grib2 2026-04-25 18:19 1.8M
20260425T12Z_MSC_CAPS_AirTemp_IsbL-0050_RLatLon0.03_PT029H.grib2 2026-04-25 18:19 692K
20260425T12Z_MSC_CAPS_AirTemp_IsbL-0100_RLatLon0.03_PT029H.grib2 2026-04-25 18:19 780K
20260425T12Z_MSC_CAPS_AirTemp_IsbL-0150_RLatLon0.03_PT029H.grib2 2026-04-25 18:19 1.0M
20260425T12Z_MSC_CAPS_AirTemp_IsbL-0175_RLatLon0.03_PT029H.grib2 2026-04-25 18:19 758K
20260425T12Z_MSC_CAPS_AirTemp_IsbL-0200_RLatLon0.03_PT029H.grib2 2026-04-25 18:19 778K
20260425T12Z_MSC_CAPS_AirTemp_IsbL-0225_RLatLon0.03_PT029H.grib2 2026-04-25 18:19 778K
20260425T12Z_MSC_CAPS_AirTemp_IsbL-0250_RLatLon0.03_PT029H.grib2 2026-04-25 18:19 1.0M
20260425T12Z_MSC_CAPS_AirTemp_IsbL-0275_RLatLon0.03_PT029H.grib2 2026-04-25 18:19 1.0M
20260425T12Z_MSC_CAPS_AirTemp_IsbL-0300_RLatLon0.03_PT029H.grib2 2026-04-25 18:19 1.0M
20260425T12Z_MSC_CAPS_AirTemp_IsbL-0350_RLatLon0.03_PT029H.grib2 2026-04-25 18:19 744K
20260425T12Z_MSC_CAPS_AirTemp_IsbL-0400_RLatLon0.03_PT029H.grib2 2026-04-25 18:19 747K
20260425T12Z_MSC_CAPS_AirTemp_IsbL-0450_RLatLon0.03_PT029H.grib2 2026-04-25 18:19 763K
20260425T12Z_MSC_CAPS_AirTemp_IsbL-0500_RLatLon0.03_PT029H.grib2 2026-04-25 18:19 784K
20260425T12Z_MSC_CAPS_AirTemp_IsbL-0550_RLatLon0.03_PT029H.grib2 2026-04-25 18:19 797K
20260425T12Z_MSC_CAPS_AirTemp_IsbL-0600_RLatLon0.03_PT029H.grib2 2026-04-25 18:19 811K
20260425T12Z_MSC_CAPS_AirTemp_IsbL-0650_RLatLon0.03_PT029H.grib2 2026-04-25 18:19 835K
20260425T12Z_MSC_CAPS_AirTemp_IsbL-0700_RLatLon0.03_PT029H.grib2 2026-04-25 18:19 866K
20260425T12Z_MSC_CAPS_AirTemp_IsbL-0750_RLatLon0.03_PT029H.grib2 2026-04-25 18:19 1.0M
20260425T12Z_MSC_CAPS_AirTemp_IsbL-0800_RLatLon0.03_PT029H.grib2 2026-04-25 18:19 1.0M
20260425T12Z_MSC_CAPS_AirTemp_IsbL-0850_RLatLon0.03_PT029H.grib2 2026-04-25 18:19 1.1M
20260425T12Z_MSC_CAPS_AirTemp_IsbL-0875_RLatLon0.03_PT029H.grib2 2026-04-25 18:19 1.1M
20260425T12Z_MSC_CAPS_AirTemp_IsbL-0900_RLatLon0.03_PT029H.grib2 2026-04-25 18:19 1.1M
20260425T12Z_MSC_CAPS_AirTemp_IsbL-0925_RLatLon0.03_PT029H.grib2 2026-04-25 18:19 1.1M
20260425T12Z_MSC_CAPS_AirTemp_IsbL-0950_RLatLon0.03_PT029H.grib2 2026-04-25 18:19 1.2M
20260425T12Z_MSC_CAPS_AirTemp_IsbL-0970_RLatLon0.03_PT029H.grib2 2026-04-25 18:19 1.2M
20260425T12Z_MSC_CAPS_AirTemp_IsbL-0985_RLatLon0.03_PT029H.grib2 2026-04-25 18:19 1.2M
20260425T12Z_MSC_CAPS_AirTemp_IsbL-1000_RLatLon0.03_PT029H.grib2 2026-04-25 18:19 1.1M
20260425T12Z_MSC_CAPS_AirTemp_IsbL-1015_RLatLon0.03_PT029H.grib2 2026-04-25 18:19 1.1M
20260425T12Z_MSC_CAPS_Albedo_Sfc_RLatLon0.03_PT029H.grib2 2026-04-25 18:19 2.7M
20260425T12Z_MSC_CAPS_CAPE_Sfc_RLatLon0.03_PT029H.grib2 2026-04-25 18:19 50K
20260425T12Z_MSC_CAPS_CloudWater_EAtm_RLatLon0.03_PT029H.grib2 2026-04-25 18:19 1.4M
20260425T12Z_MSC_CAPS_ConvectivePrecip-Accum_Sfc_RLatLon0.03_PT029H.grib2 2026-04-25 18:19 4.1M
20260425T12Z_MSC_CAPS_DewPointDepression_AGL-120m_RLatLon0.03_PT029H.grib2 2026-04-25 18:19 2.1M
20260425T12Z_MSC_CAPS_DewPointDepression_AGL-2m_RLatLon0.03_PT029H.grib2 2026-04-25 18:19 2.2M
20260425T12Z_MSC_CAPS_DewPointDepression_AGL-40m_RLatLon0.03_PT029H.grib2 2026-04-25 18:19 2.2M
20260425T12Z_MSC_CAPS_DewPointDepression_AGL-80m_RLatLon0.03_PT029H.grib2 2026-04-25 18:19 2.1M
20260425T12Z_MSC_CAPS_DewPointDepression_IsbL-0050_RLatLon0.03_PT029H.grib2 2026-04-25 18:19 2.0K
20260425T12Z_MSC_CAPS_DewPointDepression_IsbL-0100_RLatLon0.03_PT029H.grib2 2026-04-25 18:19 135K
20260425T12Z_MSC_CAPS_DewPointDepression_IsbL-0150_RLatLon0.03_PT029H.grib2 2026-04-25 18:19 127K
20260425T12Z_MSC_CAPS_DewPointDepression_IsbL-0175_RLatLon0.03_PT029H.grib2 2026-04-25 18:19 272K
20260425T12Z_MSC_CAPS_DewPointDepression_IsbL-0200_RLatLon0.03_PT029H.grib2 2026-04-25 18:19 431K
20260425T12Z_MSC_CAPS_DewPointDepression_IsbL-0225_RLatLon0.03_PT029H.grib2 2026-04-25 18:19 644K
20260425T12Z_MSC_CAPS_DewPointDepression_IsbL-0250_RLatLon0.03_PT029H.grib2 2026-04-25 18:19 858K
20260425T12Z_MSC_CAPS_DewPointDepression_IsbL-0275_RLatLon0.03_PT029H.grib2 2026-04-25 18:19 1.0M
20260425T12Z_MSC_CAPS_DewPointDepression_IsbL-0300_RLatLon0.03_PT029H.grib2 2026-04-25 18:19 1.0M
20260425T12Z_MSC_CAPS_DewPointDepression_IsbL-0350_RLatLon0.03_PT029H.grib2 2026-04-25 18:19 1.1M
20260425T12Z_MSC_CAPS_DewPointDepression_IsbL-0400_RLatLon0.03_PT029H.grib2 2026-04-25 18:19 1.1M
20260425T12Z_MSC_CAPS_DewPointDepression_IsbL-0450_RLatLon0.03_PT029H.grib2 2026-04-25 18:19 1.2M
20260425T12Z_MSC_CAPS_DewPointDepression_IsbL-0500_RLatLon0.03_PT029H.grib2 2026-04-25 18:19 1.2M
20260425T12Z_MSC_CAPS_DewPointDepression_IsbL-0550_RLatLon0.03_PT029H.grib2 2026-04-25 18:19 1.2M
20260425T12Z_MSC_CAPS_DewPointDepression_IsbL-0600_RLatLon0.03_PT029H.grib2 2026-04-25 18:19 1.3M
20260425T12Z_MSC_CAPS_DewPointDepression_IsbL-0650_RLatLon0.03_PT029H.grib2 2026-04-25 18:19 1.3M
20260425T12Z_MSC_CAPS_DewPointDepression_IsbL-0700_RLatLon0.03_PT029H.grib2 2026-04-25 18:19 1.3M
20260425T12Z_MSC_CAPS_DewPointDepression_IsbL-0750_RLatLon0.03_PT029H.grib2 2026-04-25 18:19 1.3M
20260425T12Z_MSC_CAPS_DewPointDepression_IsbL-0800_RLatLon0.03_PT029H.grib2 2026-04-25 18:19 1.3M
20260425T12Z_MSC_CAPS_DewPointDepression_IsbL-0850_RLatLon0.03_PT029H.grib2 2026-04-25 18:19 1.4M
20260425T12Z_MSC_CAPS_DewPointDepression_IsbL-0875_RLatLon0.03_PT029H.grib2 2026-04-25 18:19 1.4M
20260425T12Z_MSC_CAPS_DewPointDepression_IsbL-0900_RLatLon0.03_PT029H.grib2 2026-04-25 18:19 1.4M
20260425T12Z_MSC_CAPS_DewPointDepression_IsbL-0925_RLatLon0.03_PT029H.grib2 2026-04-25 18:19 1.3M
20260425T12Z_MSC_CAPS_DewPointDepression_IsbL-0950_RLatLon0.03_PT029H.grib2 2026-04-25 18:19 1.3M
20260425T12Z_MSC_CAPS_DewPointDepression_IsbL-0970_RLatLon0.03_PT029H.grib2 2026-04-25 18:19 1.3M
20260425T12Z_MSC_CAPS_DewPointDepression_IsbL-0985_RLatLon0.03_PT029H.grib2 2026-04-25 18:19 1.3M
20260425T12Z_MSC_CAPS_DewPointDepression_IsbL-1000_RLatLon0.03_PT029H.grib2 2026-04-25 18:19 1.3M
20260425T12Z_MSC_CAPS_DewPointDepression_IsbL-1015_RLatLon0.03_PT029H.grib2 2026-04-25 18:19 1.3M
20260425T12Z_MSC_CAPS_DewPoint_AGL-120m_RLatLon0.03_PT029H.grib2 2026-04-25 18:19 3.7M
20260425T12Z_MSC_CAPS_DewPoint_AGL-2m_RLatLon0.03_PT029H.grib2 2026-04-25 18:19 1.8M
20260425T12Z_MSC_CAPS_DewPoint_AGL-40m_RLatLon0.03_PT029H.grib2 2026-04-25 18:19 3.8M
20260425T12Z_MSC_CAPS_DewPoint_AGL-80m_RLatLon0.03_PT029H.grib2 2026-04-25 18:19 3.7M
20260425T12Z_MSC_CAPS_DownwardLongwaveRadiationFlux-Accum_Sfc_RLatLon0.03_PT029H.grib2 2026-04-25 18:19 2.4M
20260425T12Z_MSC_CAPS_DownwardShortwaveRadiationFlux-Accum_NTAtm_RLatLon0.03_PT029H.grib2 2026-04-25 18:19 469K
20260425T12Z_MSC_CAPS_DownwardShortwaveRadiationFlux-Accum_Sfc_RLatLon0.03_PT029H.grib2 2026-04-25 18:19 2.8M
20260425T12Z_MSC_CAPS_FreezingRain-Accum_Sfc_RLatLon0.03_PT029H.grib2 2026-04-25 18:19 793K
20260425T12Z_MSC_CAPS_GeopotentialHeight_IsbL-0050_RLatLon0.03_PT029H.grib2 2026-04-25 18:19 828K
20260425T12Z_MSC_CAPS_GeopotentialHeight_IsbL-0100_RLatLon0.03_PT029H.grib2 2026-04-25 18:19 814K
20260425T12Z_MSC_CAPS_GeopotentialHeight_IsbL-0150_RLatLon0.03_PT029H.grib2 2026-04-25 18:19 594K
20260425T12Z_MSC_CAPS_GeopotentialHeight_IsbL-0175_RLatLon0.03_PT029H.grib2 2026-04-25 18:19 604K
20260425T12Z_MSC_CAPS_GeopotentialHeight_IsbL-0200_RLatLon0.03_PT029H.grib2 2026-04-25 18:19 721K
20260425T12Z_MSC_CAPS_GeopotentialHeight_IsbL-0225_RLatLon0.03_PT029H.grib2 2026-04-25 18:19 736K
20260425T12Z_MSC_CAPS_GeopotentialHeight_IsbL-0250_RLatLon0.03_PT029H.grib2 2026-04-25 18:19 751K
20260425T12Z_MSC_CAPS_GeopotentialHeight_IsbL-0275_RLatLon0.03_PT029H.grib2 2026-04-25 18:19 764K
20260425T12Z_MSC_CAPS_GeopotentialHeight_IsbL-0300_RLatLon0.03_PT029H.grib2 2026-04-25 18:19 772K
20260425T12Z_MSC_CAPS_GeopotentialHeight_IsbL-0350_RLatLon0.03_PT029H.grib2 2026-04-25 18:19 775K
20260425T12Z_MSC_CAPS_GeopotentialHeight_IsbL-0400_RLatLon0.03_PT029H.grib2 2026-04-25 18:19 768K
20260425T12Z_MSC_CAPS_GeopotentialHeight_IsbL-0450_RLatLon0.03_PT029H.grib2 2026-04-25 18:19 642K
20260425T12Z_MSC_CAPS_GeopotentialHeight_IsbL-0500_RLatLon0.03_PT029H.grib2 2026-04-25 18:19 636K
20260425T12Z_MSC_CAPS_GeopotentialHeight_IsbL-0550_RLatLon0.03_PT029H.grib2 2026-04-25 18:19 632K
20260425T12Z_MSC_CAPS_GeopotentialHeight_IsbL-0600_RLatLon0.03_PT029H.grib2 2026-04-25 18:19 630K
20260425T12Z_MSC_CAPS_GeopotentialHeight_IsbL-0650_RLatLon0.03_PT029H.grib2 2026-04-25 18:19 629K
20260425T12Z_MSC_CAPS_GeopotentialHeight_IsbL-0700_RLatLon0.03_PT029H.grib2 2026-04-25 18:19 627K
20260425T12Z_MSC_CAPS_GeopotentialHeight_IsbL-0750_RLatLon0.03_PT029H.grib2 2026-04-25 18:19 788K
20260425T12Z_MSC_CAPS_GeopotentialHeight_IsbL-0800_RLatLon0.03_PT029H.grib2 2026-04-25 18:19 810K
20260425T12Z_MSC_CAPS_GeopotentialHeight_IsbL-0850_RLatLon0.03_PT029H.grib2 2026-04-25 18:19 818K
20260425T12Z_MSC_CAPS_GeopotentialHeight_IsbL-0875_RLatLon0.03_PT029H.grib2 2026-04-25 18:19 810K
20260425T12Z_MSC_CAPS_GeopotentialHeight_IsbL-0900_RLatLon0.03_PT029H.grib2 2026-04-25 18:19 836K
20260425T12Z_MSC_CAPS_GeopotentialHeight_IsbL-0925_RLatLon0.03_PT029H.grib2 2026-04-25 18:19 845K
20260425T12Z_MSC_CAPS_GeopotentialHeight_IsbL-0950_RLatLon0.03_PT029H.grib2 2026-04-25 18:19 854K
20260425T12Z_MSC_CAPS_GeopotentialHeight_IsbL-0970_RLatLon0.03_PT029H.grib2 2026-04-25 18:19 674K
20260425T12Z_MSC_CAPS_GeopotentialHeight_IsbL-0985_RLatLon0.03_PT029H.grib2 2026-04-25 18:19 680K
20260425T12Z_MSC_CAPS_GeopotentialHeight_IsbL-1000_RLatLon0.03_PT029H.grib2 2026-04-25 18:19 686K
20260425T12Z_MSC_CAPS_GeopotentialHeight_IsbL-1015_RLatLon0.03_PT029H.grib2 2026-04-25 18:19 693K
20260425T12Z_MSC_CAPS_GeopotentialHeight_Sfc_RLatLon0.03_PT029H.grib2 2026-04-25 18:19 1.0M
20260425T12Z_MSC_CAPS_IcePellets-Accum_Sfc_RLatLon0.03_PT029H.grib2 2026-04-25 18:19 56K
20260425T12Z_MSC_CAPS_LatentHeatNetFlux_Sfc_RLatLon0.03_PT029H.grib2 2026-04-25 18:19 1.9M
20260425T12Z_MSC_CAPS_LiftedIndex-MU-VT_IsbL-0500_RLatLon0.03_PT029H.grib2 2026-04-25 18:19 3.3M
20260425T12Z_MSC_CAPS_MixedLayerThickness_Sfc_RLatLon0.03_PT029H.nc 2026-04-25 18:13 17M
20260425T12Z_MSC_CAPS_NetLongwaveRadiationFlux-Accum_Sfc_RLatLon0.03_PT029H.grib2 2026-04-25 18:19 2.6M
20260425T12Z_MSC_CAPS_NetShortwaveRadiationFlux-Accum_Sfc_RLatLon0.03_PT029H.grib2 2026-04-25 18:19 2.8M
20260425T12Z_MSC_CAPS_PlanetaryBoundaryLayerHeight_Sfc_RLatLon0.03_PT029H.grib2 2026-04-25 18:19 2.9M
20260425T12Z_MSC_CAPS_Precip-Accum_Sfc_RLatLon0.03_PT029H.grib2 2026-04-25 18:19 5.1M
20260425T12Z_MSC_CAPS_PrecipRate_Sfc_RLatLon0.03_PT029H.grib2 2026-04-25 18:19 624K
20260425T12Z_MSC_CAPS_PrecipType-Instant_Sfc_RLatLon0.03_PT029H.grib2 2026-04-25 18:19 2.0M
20260425T12Z_MSC_CAPS_Pressure_MSL_RLatLon0.03_PT029H.grib2 2026-04-25 18:19 925K
20260425T12Z_MSC_CAPS_Pressure_Sfc_RLatLon0.03_PT029H.grib2 2026-04-25 18:19 1.3M
20260425T12Z_MSC_CAPS_RadiativeTemp_Sfc_RLatLon0.03_PT029H.grib2 2026-04-25 18:19 2.1M
20260425T12Z_MSC_CAPS_Rain-Accum_Sfc_RLatLon0.03_PT029H.grib2 2026-04-25 18:19 2.2M
20260425T12Z_MSC_CAPS_RelativeHumidity_AGL-120m_RLatLon0.03_PT029H.grib2 2026-04-25 18:19 2.8M
20260425T12Z_MSC_CAPS_RelativeHumidity_AGL-2m_RLatLon0.03_PT029H.grib2 2026-04-25 18:19 3.0M
20260425T12Z_MSC_CAPS_RelativeHumidity_AGL-40m_RLatLon0.03_PT029H.grib2 2026-04-25 18:19 3.0M
20260425T12Z_MSC_CAPS_RelativeHumidity_AGL-80m_RLatLon0.03_PT029H.grib2 2026-04-25 18:19 2.8M
20260425T12Z_MSC_CAPS_RelativeHumidity_IsbL-0050_RLatLon0.03_PT029H.grib2 2026-04-25 18:19 1.0M
20260425T12Z_MSC_CAPS_RelativeHumidity_IsbL-0100_RLatLon0.03_PT029H.grib2 2026-04-25 18:19 865K
20260425T12Z_MSC_CAPS_RelativeHumidity_IsbL-0150_RLatLon0.03_PT029H.grib2 2026-04-25 18:19 677K
20260425T12Z_MSC_CAPS_RelativeHumidity_IsbL-0175_RLatLon0.03_PT029H.grib2 2026-04-25 18:19 510K
20260425T12Z_MSC_CAPS_RelativeHumidity_IsbL-0200_RLatLon0.03_PT029H.grib2 2026-04-25 18:19 672K
20260425T12Z_MSC_CAPS_RelativeHumidity_IsbL-0225_RLatLon0.03_PT029H.grib2 2026-04-25 18:19 872K
20260425T12Z_MSC_CAPS_RelativeHumidity_IsbL-0250_RLatLon0.03_PT029H.grib2 2026-04-25 18:19 1.1M
20260425T12Z_MSC_CAPS_RelativeHumidity_IsbL-0275_RLatLon0.03_PT029H.grib2 2026-04-25 18:19 1.4M
20260425T12Z_MSC_CAPS_RelativeHumidity_IsbL-0300_RLatLon0.03_PT029H.grib2 2026-04-25 18:19 1.7M
20260425T12Z_MSC_CAPS_RelativeHumidity_IsbL-0350_RLatLon0.03_PT029H.grib2 2026-04-25 18:19 2.0M
20260425T12Z_MSC_CAPS_RelativeHumidity_IsbL-0400_RLatLon0.03_PT029H.grib2 2026-04-25 18:19 1.9M
20260425T12Z_MSC_CAPS_RelativeHumidity_IsbL-0450_RLatLon0.03_PT029H.grib2 2026-04-25 18:19 2.0M
20260425T12Z_MSC_CAPS_RelativeHumidity_IsbL-0500_RLatLon0.03_PT029H.grib2 2026-04-25 18:19 2.0M
20260425T12Z_MSC_CAPS_RelativeHumidity_IsbL-0550_RLatLon0.03_PT029H.grib2 2026-04-25 18:19 2.2M
20260425T12Z_MSC_CAPS_RelativeHumidity_IsbL-0600_RLatLon0.03_PT029H.grib2 2026-04-25 18:19 2.2M
20260425T12Z_MSC_CAPS_RelativeHumidity_IsbL-0650_RLatLon0.03_PT029H.grib2 2026-04-25 18:19 2.2M
20260425T12Z_MSC_CAPS_RelativeHumidity_IsbL-0700_RLatLon0.03_PT029H.grib2 2026-04-25 18:19 2.3M
20260425T12Z_MSC_CAPS_RelativeHumidity_IsbL-0750_RLatLon0.03_PT029H.grib2 2026-04-25 18:19 2.4M
20260425T12Z_MSC_CAPS_RelativeHumidity_IsbL-0800_RLatLon0.03_PT029H.grib2 2026-04-25 18:19 2.4M
20260425T12Z_MSC_CAPS_RelativeHumidity_IsbL-0850_RLatLon0.03_PT029H.grib2 2026-04-25 18:19 2.5M
20260425T12Z_MSC_CAPS_RelativeHumidity_IsbL-0875_RLatLon0.03_PT029H.grib2 2026-04-25 18:19 2.5M
20260425T12Z_MSC_CAPS_RelativeHumidity_IsbL-0900_RLatLon0.03_PT029H.grib2 2026-04-25 18:19 2.6M
20260425T12Z_MSC_CAPS_RelativeHumidity_IsbL-0925_RLatLon0.03_PT029H.grib2 2026-04-25 18:19 2.7M
20260425T12Z_MSC_CAPS_RelativeHumidity_IsbL-0950_RLatLon0.03_PT029H.grib2 2026-04-25 18:19 2.7M
20260425T12Z_MSC_CAPS_RelativeHumidity_IsbL-0970_RLatLon0.03_PT029H.grib2 2026-04-25 18:19 2.8M
20260425T12Z_MSC_CAPS_RelativeHumidity_IsbL-0985_RLatLon0.03_PT029H.grib2 2026-04-25 18:19 2.9M
20260425T12Z_MSC_CAPS_RelativeHumidity_IsbL-1000_RLatLon0.03_PT029H.grib2 2026-04-25 18:19 2.9M
20260425T12Z_MSC_CAPS_RelativeHumidity_IsbL-1015_RLatLon0.03_PT029H.grib2 2026-04-25 18:19 3.0M
20260425T12Z_MSC_CAPS_Runoff-Accum_Sfc_RLatLon0.03_PT029H.grib2 2026-04-25 18:19 276K
20260425T12Z_MSC_CAPS_SeaIceAreaFraction_Sfc_RLatLon0.03_PT029H.nc 2026-04-25 18:13 15M
20260425T12Z_MSC_CAPS_SeaIceCompressiveStrength_Sfc_RLatLon0.03_PT029H.nc 2026-04-25 18:13 15M
20260425T12Z_MSC_CAPS_SeaIceDivergence_Sfc_RLatLon0.03_PT029H.nc 2026-04-25 18:13 15M
20260425T12Z_MSC_CAPS_SeaIceInternalPressure_Sfc_RLatLon0.03_PT029H.nc 2026-04-25 18:13 15M
20260425T12Z_MSC_CAPS_SeaIceShear_Sfc_RLatLon0.03_PT029H.nc 2026-04-25 18:13 15M
20260425T12Z_MSC_CAPS_SeaIceSnowTemp_Sfc_RLatLon0.03_PT029H.nc 2026-04-25 18:13 15M
20260425T12Z_MSC_CAPS_SeaIceSnowVolume_Sfc_RLatLon0.03_PT029H.nc 2026-04-25 18:13 15M
20260425T12Z_MSC_CAPS_SeaIceVelocityX_Sfc_RLatLon0.03_PT029H.nc 2026-04-25 18:13 15M
20260425T12Z_MSC_CAPS_SeaIceVelocityY_Sfc_RLatLon0.03_PT029H.nc 2026-04-25 18:13 15M
20260425T12Z_MSC_CAPS_SeaIceVolume_Sfc_RLatLon0.03_PT029H.nc 2026-04-25 18:13 15M
20260425T12Z_MSC_CAPS_SeaSurfaceHeight_Sfc_RLatLon0.03_PT029H.nc 2026-04-25 18:13 16M
20260425T12Z_MSC_CAPS_SeaWaterSalinity_DBS-0.5m_RLatLon0.03_PT029H.nc 2026-04-25 18:13 16M
20260425T12Z_MSC_CAPS_SeaWaterSalinity_DBS-all_RLatLon0.03_PT029H.nc 2026-04-25 18:13 107M
20260425T12Z_MSC_CAPS_SeaWaterTemp_DBS-0.5m_RLatLon0.03_PT029H.nc 2026-04-25 18:13 14M
20260425T12Z_MSC_CAPS_SeaWaterTemp_DBS-all_RLatLon0.03_PT029H.nc 2026-04-25 18:13 87M
20260425T12Z_MSC_CAPS_SeaWaterVelocityX_DBS-0.5m_RLatLon0.03_PT029H.nc 2026-04-25 18:13 17M
20260425T12Z_MSC_CAPS_SeaWaterVelocityX_DBS-all_RLatLon0.03_PT029H.nc 2026-04-25 18:13 211M
20260425T12Z_MSC_CAPS_SeaWaterVelocityY_DBS-0.5m_RLatLon0.03_PT029H.nc 2026-04-25 18:13 17M
20260425T12Z_MSC_CAPS_SeaWaterVelocityY_DBS-all_RLatLon0.03_PT029H.nc 2026-04-25 18:13 216M
20260425T12Z_MSC_CAPS_SensibleHeatNetFlux_Sfc_RLatLon0.03_PT029H.grib2 2026-04-25 18:19 2.2M
20260425T12Z_MSC_CAPS_ShowalterIndex_IsbL-0500_RLatLon0.03_PT029H.grib2 2026-04-25 18:19 4.3M
20260425T12Z_MSC_CAPS_Snow-Accum_Sfc_RLatLon0.03_PT029H.grib2 2026-04-25 18:19 4.2M
20260425T12Z_MSC_CAPS_SnowDensity_Sfc_RLatLon0.03_PT029H.grib2 2026-04-25 18:19 1.3M
20260425T12Z_MSC_CAPS_SnowDepthWaterEquivalent_Sfc_RLatLon0.03_PT029H.grib2 2026-04-25 18:19 726K
20260425T12Z_MSC_CAPS_SnowDepth_Sfc_RLatLon0.03_PT029H.grib2 2026-04-25 18:19 1.3M
20260425T12Z_MSC_CAPS_SoilTemp_DBS-0to10cm_RLatLon0.03_PT029H.grib2 2026-04-25 18:19 1.6M
20260425T12Z_MSC_CAPS_SoilTemp_Sfc_RLatLon0.03_PT029H.grib2 2026-04-25 18:19 1.8M
20260425T12Z_MSC_CAPS_SoilVolumetricIceContent_Sfc_RLatLon0.03_PT029H.grib2 2026-04-25 18:19 1.4M
20260425T12Z_MSC_CAPS_SoilVolumetricWaterContent_DBS-0to10cm_RLatLon0.03_PT029H.grib2 2026-04-25 18:19 1.1M
20260425T12Z_MSC_CAPS_SoilVolumetricWaterContent_DBS-0to1cm_RLatLon0.03_PT029H.grib2 2026-04-25 18:19 1.7M
20260425T12Z_MSC_CAPS_SpecificHumidity_AGL-120m_RLatLon0.03_PT029H.grib2 2026-04-25 18:19 1.7M
20260425T12Z_MSC_CAPS_SpecificHumidity_AGL-2m_RLatLon0.03_PT029H.grib2 2026-04-25 18:19 2.1M
20260425T12Z_MSC_CAPS_SpecificHumidity_AGL-40m_RLatLon0.03_PT029H.grib2 2026-04-25 18:19 1.8M
20260425T12Z_MSC_CAPS_SpecificHumidity_AGL-80m_RLatLon0.03_PT029H.grib2 2026-04-25 18:19 1.8M
20260425T12Z_MSC_CAPS_SpecificHumidity_IsbL-0050_RLatLon0.03_PT029H.grib2 2026-04-25 18:19 938K
20260425T12Z_MSC_CAPS_SpecificHumidity_IsbL-0100_RLatLon0.03_PT029H.grib2 2026-04-25 18:19 1.0M
20260425T12Z_MSC_CAPS_SpecificHumidity_IsbL-0150_RLatLon0.03_PT029H.grib2 2026-04-25 18:19 1.1M
20260425T12Z_MSC_CAPS_SpecificHumidity_IsbL-0175_RLatLon0.03_PT029H.grib2 2026-04-25 18:19 1.0M
20260425T12Z_MSC_CAPS_SpecificHumidity_IsbL-0200_RLatLon0.03_PT029H.grib2 2026-04-25 18:19 884K
20260425T12Z_MSC_CAPS_SpecificHumidity_IsbL-0225_RLatLon0.03_PT029H.grib2 2026-04-25 18:19 1.0M
20260425T12Z_MSC_CAPS_SpecificHumidity_IsbL-0250_RLatLon0.03_PT029H.grib2 2026-04-25 18:19 1.1M
20260425T12Z_MSC_CAPS_SpecificHumidity_IsbL-0275_RLatLon0.03_PT029H.grib2 2026-04-25 18:19 1.1M
20260425T12Z_MSC_CAPS_SpecificHumidity_IsbL-0300_RLatLon0.03_PT029H.grib2 2026-04-25 18:19 1.0M
20260425T12Z_MSC_CAPS_SpecificHumidity_IsbL-0350_RLatLon0.03_PT029H.grib2 2026-04-25 18:19 959K
20260425T12Z_MSC_CAPS_SpecificHumidity_IsbL-0400_RLatLon0.03_PT029H.grib2 2026-04-25 18:19 1.1M
20260425T12Z_MSC_CAPS_SpecificHumidity_IsbL-0450_RLatLon0.03_PT029H.grib2 2026-04-25 18:19 1.1M
20260425T12Z_MSC_CAPS_SpecificHumidity_IsbL-0500_RLatLon0.03_PT029H.grib2 2026-04-25 18:19 1.3M
20260425T12Z_MSC_CAPS_SpecificHumidity_IsbL-0550_RLatLon0.03_PT029H.grib2 2026-04-25 18:19 1.3M
20260425T12Z_MSC_CAPS_SpecificHumidity_IsbL-0600_RLatLon0.03_PT029H.grib2 2026-04-25 18:19 1.4M
20260425T12Z_MSC_CAPS_SpecificHumidity_IsbL-0650_RLatLon0.03_PT029H.grib2 2026-04-25 18:19 1.5M
20260425T12Z_MSC_CAPS_SpecificHumidity_IsbL-0700_RLatLon0.03_PT029H.grib2 2026-04-25 18:19 1.6M
20260425T12Z_MSC_CAPS_SpecificHumidity_IsbL-0750_RLatLon0.03_PT029H.grib2 2026-04-25 18:19 1.4M
20260425T12Z_MSC_CAPS_SpecificHumidity_IsbL-0800_RLatLon0.03_PT029H.grib2 2026-04-25 18:19 1.5M
20260425T12Z_MSC_CAPS_SpecificHumidity_IsbL-0850_RLatLon0.03_PT029H.grib2 2026-04-25 18:19 1.6M
20260425T12Z_MSC_CAPS_SpecificHumidity_IsbL-0875_RLatLon0.03_PT029H.grib2 2026-04-25 18:19 1.7M
20260425T12Z_MSC_CAPS_SpecificHumidity_IsbL-0900_RLatLon0.03_PT029H.grib2 2026-04-25 18:19 1.7M
20260425T12Z_MSC_CAPS_SpecificHumidity_IsbL-0925_RLatLon0.03_PT029H.grib2 2026-04-25 18:19 1.8M
20260425T12Z_MSC_CAPS_SpecificHumidity_IsbL-0950_RLatLon0.03_PT029H.grib2 2026-04-25 18:19 1.9M
20260425T12Z_MSC_CAPS_SpecificHumidity_IsbL-0970_RLatLon0.03_PT029H.grib2 2026-04-25 18:19 1.9M
20260425T12Z_MSC_CAPS_SpecificHumidity_IsbL-0985_RLatLon0.03_PT029H.grib2 2026-04-25 18:19 2.0M
20260425T12Z_MSC_CAPS_SpecificHumidity_IsbL-1000_RLatLon0.03_PT029H.grib2 2026-04-25 18:19 2.0M
20260425T12Z_MSC_CAPS_SpecificHumidity_IsbL-1015_RLatLon0.03_PT029H.grib2 2026-04-25 18:19 2.1M
20260425T12Z_MSC_CAPS_SpecificHumidity_Sfc_RLatLon0.03_PT029H.grib2 2026-04-25 18:19 2.4M
20260425T12Z_MSC_CAPS_StormRelativeHelicity_Sfc_RLatLon0.03_PT029H.grib2 2026-04-25 18:19 2.7M
20260425T12Z_MSC_CAPS_Thickness_IsbL-1000to0500_RLatLon0.03_PT029H.grib2 2026-04-25 18:19 403K
20260425T12Z_MSC_CAPS_TotalCloudCover_Sfc_RLatLon0.03_PT029H.grib2 2026-04-25 18:19 3.7M
20260425T12Z_MSC_CAPS_TurboclineDepth_Sfc_RLatLon0.03_PT029H.nc 2026-04-25 18:13 16M
20260425T12Z_MSC_CAPS_UpwardLongwaveRadiationFlux_NTAtm_RLatLon0.03_PT029H.grib2 2026-04-25 18:19 2.9M
20260425T12Z_MSC_CAPS_UpwardShortwaveRadiationFlux_NTAtm_RLatLon0.03_PT029H.grib2 2026-04-25 18:19 2.6M
20260425T12Z_MSC_CAPS_VerticalVelocity_IsbL-0250_RLatLon0.03_PT029H.grib2 2026-04-25 18:19 859K
20260425T12Z_MSC_CAPS_VerticalVelocity_IsbL-0500_RLatLon0.03_PT029H.grib2 2026-04-25 18:19 1.1M
20260425T12Z_MSC_CAPS_VerticalVelocity_IsbL-0700_RLatLon0.03_PT029H.grib2 2026-04-25 18:19 920K
20260425T12Z_MSC_CAPS_VerticalVelocity_IsbL-0850_RLatLon0.03_PT029H.grib2 2026-04-25 18:19 1.1M
20260425T12Z_MSC_CAPS_VerticalVelocity_IsbL-1000_RLatLon0.03_PT029H.grib2 2026-04-25 18:19 1.4M
20260425T12Z_MSC_CAPS_WindDir_AGL-10m_RLatLon0.03_PT029H.grib2 2026-04-25 18:19 2.4M
20260425T12Z_MSC_CAPS_WindDir_AGL-120m_RLatLon0.03_PT029H.grib2 2026-04-25 18:19 1.3M
20260425T12Z_MSC_CAPS_WindDir_AGL-40m_RLatLon0.03_PT029H.grib2 2026-04-25 18:19 1.4M
20260425T12Z_MSC_CAPS_WindDir_AGL-80m_RLatLon0.03_PT029H.grib2 2026-04-25 18:19 1.4M
20260425T12Z_MSC_CAPS_WindDir_IsbL-0050_RLatLon0.03_PT029H.grib2 2026-04-25 18:19 1.1M
20260425T12Z_MSC_CAPS_WindDir_IsbL-0100_RLatLon0.03_PT029H.grib2 2026-04-25 18:19 1.0M
20260425T12Z_MSC_CAPS_WindDir_IsbL-0150_RLatLon0.03_PT029H.grib2 2026-04-25 18:19 1.1M
20260425T12Z_MSC_CAPS_WindDir_IsbL-0175_RLatLon0.03_PT029H.grib2 2026-04-25 18:19 1.0M
20260425T12Z_MSC_CAPS_WindDir_IsbL-0200_RLatLon0.03_PT029H.grib2 2026-04-25 18:19 1.1M
20260425T12Z_MSC_CAPS_WindDir_IsbL-0225_RLatLon0.03_PT029H.grib2 2026-04-25 18:19 1.2M
20260425T12Z_MSC_CAPS_WindDir_IsbL-0250_RLatLon0.03_PT029H.grib2 2026-04-25 18:19 1.1M
20260425T12Z_MSC_CAPS_WindDir_IsbL-0275_RLatLon0.03_PT029H.grib2 2026-04-25 18:19 1.1M
20260425T12Z_MSC_CAPS_WindDir_IsbL-0300_RLatLon0.03_PT029H.grib2 2026-04-25 18:19 1.1M
20260425T12Z_MSC_CAPS_WindDir_IsbL-0350_RLatLon0.03_PT029H.grib2 2026-04-25 18:19 1.1M
20260425T12Z_MSC_CAPS_WindDir_IsbL-0400_RLatLon0.03_PT029H.grib2 2026-04-25 18:19 1.2M
20260425T12Z_MSC_CAPS_WindDir_IsbL-0450_RLatLon0.03_PT029H.grib2 2026-04-25 18:19 1.2M
20260425T12Z_MSC_CAPS_WindDir_IsbL-0500_RLatLon0.03_PT029H.grib2 2026-04-25 18:19 1.2M
20260425T12Z_MSC_CAPS_WindDir_IsbL-0550_RLatLon0.03_PT029H.grib2 2026-04-25 18:19 1.3M
20260425T12Z_MSC_CAPS_WindDir_IsbL-0600_RLatLon0.03_PT029H.grib2 2026-04-25 18:19 1.3M
20260425T12Z_MSC_CAPS_WindDir_IsbL-0650_RLatLon0.03_PT029H.grib2 2026-04-25 18:19 1.4M
20260425T12Z_MSC_CAPS_WindDir_IsbL-0700_RLatLon0.03_PT029H.grib2 2026-04-25 18:19 1.5M
20260425T12Z_MSC_CAPS_WindDir_IsbL-0750_RLatLon0.03_PT029H.grib2 2026-04-25 18:19 1.6M
20260425T12Z_MSC_CAPS_WindDir_IsbL-0800_RLatLon0.03_PT029H.grib2 2026-04-25 18:19 1.7M
20260425T12Z_MSC_CAPS_WindDir_IsbL-0850_RLatLon0.03_PT029H.grib2 2026-04-25 18:19 1.8M
20260425T12Z_MSC_CAPS_WindDir_IsbL-0875_RLatLon0.03_PT029H.grib2 2026-04-25 18:19 1.9M
20260425T12Z_MSC_CAPS_WindDir_IsbL-0900_RLatLon0.03_PT029H.grib2 2026-04-25 18:19 2.0M
20260425T12Z_MSC_CAPS_WindDir_IsbL-0925_RLatLon0.03_PT029H.grib2 2026-04-25 18:19 2.1M
20260425T12Z_MSC_CAPS_WindDir_IsbL-0950_RLatLon0.03_PT029H.grib2 2026-04-25 18:19 2.1M
20260425T12Z_MSC_CAPS_WindDir_IsbL-0970_RLatLon0.03_PT029H.grib2 2026-04-25 18:19 2.2M
20260425T12Z_MSC_CAPS_WindDir_IsbL-0985_RLatLon0.03_PT029H.grib2 2026-04-25 18:19 2.2M
20260425T12Z_MSC_CAPS_WindDir_IsbL-1000_RLatLon0.03_PT029H.grib2 2026-04-25 18:19 2.3M
20260425T12Z_MSC_CAPS_WindDir_IsbL-1015_RLatLon0.03_PT029H.grib2 2026-04-25 18:19 2.4M
20260425T12Z_MSC_CAPS_WindGust-Max_AGL-10m_RLatLon0.03_PT029H.grib2 2026-04-25 18:19 2.5M
20260425T12Z_MSC_CAPS_WindGust-Min_AGL-10m_RLatLon0.03_PT029H.grib2 2026-04-25 18:19 2.5M
20260425T12Z_MSC_CAPS_WindGust_AGL-10m_RLatLon0.03_PT029H.grib2 2026-04-25 18:19 2.5M
20260425T12Z_MSC_CAPS_WindSpeed_AGL-10m_RLatLon0.03_PT029H.grib2 2026-04-25 18:19 2.1M
20260425T12Z_MSC_CAPS_WindSpeed_AGL-120m_RLatLon0.03_PT029H.grib2 2026-04-25 18:19 1.2M
20260425T12Z_MSC_CAPS_WindSpeed_AGL-40m_RLatLon0.03_PT029H.grib2 2026-04-25 18:19 1.2M
20260425T12Z_MSC_CAPS_WindSpeed_AGL-80m_RLatLon0.03_PT029H.grib2 2026-04-25 18:19 1.2M
20260425T12Z_MSC_CAPS_WindSpeed_IsbL-0050_RLatLon0.03_PT029H.grib2 2026-04-25 18:19 1.2M
20260425T12Z_MSC_CAPS_WindSpeed_IsbL-0100_RLatLon0.03_PT029H.grib2 2026-04-25 18:19 1.1M
20260425T12Z_MSC_CAPS_WindSpeed_IsbL-0150_RLatLon0.03_PT029H.grib2 2026-04-25 18:19 1.0M
20260425T12Z_MSC_CAPS_WindSpeed_IsbL-0175_RLatLon0.03_PT029H.grib2 2026-04-25 18:19 1.1M
20260425T12Z_MSC_CAPS_WindSpeed_IsbL-0200_RLatLon0.03_PT029H.grib2 2026-04-25 18:19 1.1M
20260425T12Z_MSC_CAPS_WindSpeed_IsbL-0225_RLatLon0.03_PT029H.grib2 2026-04-25 18:19 938K
20260425T12Z_MSC_CAPS_WindSpeed_IsbL-0250_RLatLon0.03_PT029H.grib2 2026-04-25 18:19 956K
20260425T12Z_MSC_CAPS_WindSpeed_IsbL-0275_RLatLon0.03_PT029H.grib2 2026-04-25 18:19 965K
20260425T12Z_MSC_CAPS_WindSpeed_IsbL-0300_RLatLon0.03_PT029H.grib2 2026-04-25 18:19 1.0M
20260425T12Z_MSC_CAPS_WindSpeed_IsbL-0350_RLatLon0.03_PT029H.grib2 2026-04-25 18:19 1.0M
20260425T12Z_MSC_CAPS_WindSpeed_IsbL-0400_RLatLon0.03_PT029H.grib2 2026-04-25 18:19 1.0M
20260425T12Z_MSC_CAPS_WindSpeed_IsbL-0450_RLatLon0.03_PT029H.grib2 2026-04-25 18:19 1.3M
20260425T12Z_MSC_CAPS_WindSpeed_IsbL-0500_RLatLon0.03_PT029H.grib2 2026-04-25 18:19 1.3M
20260425T12Z_MSC_CAPS_WindSpeed_IsbL-0550_RLatLon0.03_PT029H.grib2 2026-04-25 18:19 1.5M
20260425T12Z_MSC_CAPS_WindSpeed_IsbL-0600_RLatLon0.03_PT029H.grib2 2026-04-25 18:19 1.4M
20260425T12Z_MSC_CAPS_WindSpeed_IsbL-0650_RLatLon0.03_PT029H.grib2 2026-04-25 18:19 1.4M
20260425T12Z_MSC_CAPS_WindSpeed_IsbL-0700_RLatLon0.03_PT029H.grib2 2026-04-25 18:19 1.4M
20260425T12Z_MSC_CAPS_WindSpeed_IsbL-0750_RLatLon0.03_PT029H.grib2 2026-04-25 18:19 1.5M
20260425T12Z_MSC_CAPS_WindSpeed_IsbL-0800_RLatLon0.03_PT029H.grib2 2026-04-25 18:19 1.6M
20260425T12Z_MSC_CAPS_WindSpeed_IsbL-0850_RLatLon0.03_PT029H.grib2 2026-04-25 18:19 1.7M
20260425T12Z_MSC_CAPS_WindSpeed_IsbL-0875_RLatLon0.03_PT029H.grib2 2026-04-25 18:19 1.8M
20260425T12Z_MSC_CAPS_WindSpeed_IsbL-0900_RLatLon0.03_PT029H.grib2 2026-04-25 18:19 1.9M
20260425T12Z_MSC_CAPS_WindSpeed_IsbL-0925_RLatLon0.03_PT029H.grib2 2026-04-25 18:19 1.9M
20260425T12Z_MSC_CAPS_WindSpeed_IsbL-0950_RLatLon0.03_PT029H.grib2 2026-04-25 18:19 2.0M
20260425T12Z_MSC_CAPS_WindSpeed_IsbL-0970_RLatLon0.03_PT029H.grib2 2026-04-25 18:19 2.0M
20260425T12Z_MSC_CAPS_WindSpeed_IsbL-0985_RLatLon0.03_PT029H.grib2 2026-04-25 18:19 2.1M
20260425T12Z_MSC_CAPS_WindSpeed_IsbL-1000_RLatLon0.03_PT029H.grib2 2026-04-25 18:19 2.1M
20260425T12Z_MSC_CAPS_WindSpeed_IsbL-1015_RLatLon0.03_PT029H.grib2 2026-04-25 18:19 2.1M
20260425T12Z_MSC_CAPS_WindU_AGL-10m_RLatLon0.03_PT029H.grib2 2026-04-25 18:19 2.0M
20260425T12Z_MSC_CAPS_WindU_AGL-120m_RLatLon0.03_PT029H.grib2 2026-04-25 18:19 1.2M
20260425T12Z_MSC_CAPS_WindU_AGL-40m_RLatLon0.03_PT029H.grib2 2026-04-25 18:19 1.2M
20260425T12Z_MSC_CAPS_WindU_AGL-80m_RLatLon0.03_PT029H.grib2 2026-04-25 18:19 1.2M
20260425T12Z_MSC_CAPS_WindU_IsbL-0050_RLatLon0.03_PT029H.grib2 2026-04-25 18:19 762K
20260425T12Z_MSC_CAPS_WindU_IsbL-0100_RLatLon0.03_PT029H.grib2 2026-04-25 18:19 781K
20260425T12Z_MSC_CAPS_WindU_IsbL-0150_RLatLon0.03_PT029H.grib2 2026-04-25 18:19 905K
20260425T12Z_MSC_CAPS_WindU_IsbL-0175_RLatLon0.03_PT029H.grib2 2026-04-25 18:19 713K
20260425T12Z_MSC_CAPS_WindU_IsbL-0200_RLatLon0.03_PT029H.grib2 2026-04-25 18:19 729K
20260425T12Z_MSC_CAPS_WindU_IsbL-0225_RLatLon0.03_PT029H.grib2 2026-04-25 18:19 875K
20260425T12Z_MSC_CAPS_WindU_IsbL-0250_RLatLon0.03_PT029H.grib2 2026-04-25 18:19 895K
20260425T12Z_MSC_CAPS_WindU_IsbL-0275_RLatLon0.03_PT029H.grib2 2026-04-25 18:19 700K
20260425T12Z_MSC_CAPS_WindU_IsbL-0300_RLatLon0.03_PT029H.grib2 2026-04-25 18:19 711K
20260425T12Z_MSC_CAPS_WindU_IsbL-0350_RLatLon0.03_PT029H.grib2 2026-04-25 18:19 722K
20260425T12Z_MSC_CAPS_WindU_IsbL-0400_RLatLon0.03_PT029H.grib2 2026-04-25 18:19 936K
20260425T12Z_MSC_CAPS_WindU_IsbL-0450_RLatLon0.03_PT029H.grib2 2026-04-25 18:19 954K
20260425T12Z_MSC_CAPS_WindU_IsbL-0500_RLatLon0.03_PT029H.grib2 2026-04-25 18:19 1.0M
20260425T12Z_MSC_CAPS_WindU_IsbL-0550_RLatLon0.03_PT029H.grib2 2026-04-25 18:19 1.0M
20260425T12Z_MSC_CAPS_WindU_IsbL-0600_RLatLon0.03_PT029H.grib2 2026-04-25 18:19 933K
20260425T12Z_MSC_CAPS_WindU_IsbL-0650_RLatLon0.03_PT029H.grib2 2026-04-25 18:19 966K
20260425T12Z_MSC_CAPS_WindU_IsbL-0700_RLatLon0.03_PT029H.grib2 2026-04-25 18:19 1.0M
20260425T12Z_MSC_CAPS_WindU_IsbL-0750_RLatLon0.03_PT029H.grib2 2026-04-25 18:19 1.0M
20260425T12Z_MSC_CAPS_WindU_IsbL-0800_RLatLon0.03_PT029H.grib2 2026-04-25 18:19 1.4M
20260425T12Z_MSC_CAPS_WindU_IsbL-0850_RLatLon0.03_PT029H.grib2 2026-04-25 18:19 1.5M
20260425T12Z_MSC_CAPS_WindU_IsbL-0875_RLatLon0.03_PT029H.grib2 2026-04-25 18:19 1.5M
20260425T12Z_MSC_CAPS_WindU_IsbL-0900_RLatLon0.03_PT029H.grib2 2026-04-25 18:19 1.6M
20260425T12Z_MSC_CAPS_WindU_IsbL-0925_RLatLon0.03_PT029H.grib2 2026-04-25 18:19 1.6M
20260425T12Z_MSC_CAPS_WindU_IsbL-0950_RLatLon0.03_PT029H.grib2 2026-04-25 18:19 1.7M
20260425T12Z_MSC_CAPS_WindU_IsbL-0970_RLatLon0.03_PT029H.grib2 2026-04-25 18:19 1.7M
20260425T12Z_MSC_CAPS_WindU_IsbL-0985_RLatLon0.03_PT029H.grib2 2026-04-25 18:19 1.8M
20260425T12Z_MSC_CAPS_WindU_IsbL-1000_RLatLon0.03_PT029H.grib2 2026-04-25 18:19 1.8M
20260425T12Z_MSC_CAPS_WindU_IsbL-1015_RLatLon0.03_PT029H.grib2 2026-04-25 18:19 2.0M
20260425T12Z_MSC_CAPS_WindV_AGL-10m_RLatLon0.03_PT029H.grib2 2026-04-25 18:19 1.9M
20260425T12Z_MSC_CAPS_WindV_AGL-120m_RLatLon0.03_PT029H.grib2 2026-04-25 18:19 915K
20260425T12Z_MSC_CAPS_WindV_AGL-40m_RLatLon0.03_PT029H.grib2 2026-04-25 18:19 1.2M
20260425T12Z_MSC_CAPS_WindV_AGL-80m_RLatLon0.03_PT029H.grib2 2026-04-25 18:19 920K
20260425T12Z_MSC_CAPS_WindV_IsbL-0050_RLatLon0.03_PT029H.grib2 2026-04-25 18:19 938K
20260425T12Z_MSC_CAPS_WindV_IsbL-0100_RLatLon0.03_PT029H.grib2 2026-04-25 18:19 781K
20260425T12Z_MSC_CAPS_WindV_IsbL-0150_RLatLon0.03_PT029H.grib2 2026-04-25 18:19 906K
20260425T12Z_MSC_CAPS_WindV_IsbL-0175_RLatLon0.03_PT029H.grib2 2026-04-25 18:19 715K
20260425T12Z_MSC_CAPS_WindV_IsbL-0200_RLatLon0.03_PT029H.grib2 2026-04-25 18:19 860K
20260425T12Z_MSC_CAPS_WindV_IsbL-0225_RLatLon0.03_PT029H.grib2 2026-04-25 18:19 877K
20260425T12Z_MSC_CAPS_WindV_IsbL-0250_RLatLon0.03_PT029H.grib2 2026-04-25 18:19 897K
20260425T12Z_MSC_CAPS_WindV_IsbL-0275_RLatLon0.03_PT029H.grib2 2026-04-25 18:19 698K
20260425T12Z_MSC_CAPS_WindV_IsbL-0300_RLatLon0.03_PT029H.grib2 2026-04-25 18:19 917K
20260425T12Z_MSC_CAPS_WindV_IsbL-0350_RLatLon0.03_PT029H.grib2 2026-04-25 18:19 932K
20260425T12Z_MSC_CAPS_WindV_IsbL-0400_RLatLon0.03_PT029H.grib2 2026-04-25 18:19 939K
20260425T12Z_MSC_CAPS_WindV_IsbL-0450_RLatLon0.03_PT029H.grib2 2026-04-25 18:19 955K
20260425T12Z_MSC_CAPS_WindV_IsbL-0500_RLatLon0.03_PT029H.grib2 2026-04-25 18:19 866K
20260425T12Z_MSC_CAPS_WindV_IsbL-0550_RLatLon0.03_PT029H.grib2 2026-04-25 18:19 906K
20260425T12Z_MSC_CAPS_WindV_IsbL-0600_RLatLon0.03_PT029H.grib2 2026-04-25 18:19 1.2M
20260425T12Z_MSC_CAPS_WindV_IsbL-0650_RLatLon0.03_PT029H.grib2 2026-04-25 18:19 1.2M
20260425T12Z_MSC_CAPS_WindV_IsbL-0700_RLatLon0.03_PT029H.grib2 2026-04-25 18:19 1.3M
20260425T12Z_MSC_CAPS_WindV_IsbL-0750_RLatLon0.03_PT029H.grib2 2026-04-25 18:19 1.0M
20260425T12Z_MSC_CAPS_WindV_IsbL-0800_RLatLon0.03_PT029H.grib2 2026-04-25 18:19 1.1M
20260425T12Z_MSC_CAPS_WindV_IsbL-0850_RLatLon0.03_PT029H.grib2 2026-04-25 18:19 1.2M
20260425T12Z_MSC_CAPS_WindV_IsbL-0875_RLatLon0.03_PT029H.grib2 2026-04-25 18:19 1.3M
20260425T12Z_MSC_CAPS_WindV_IsbL-0900_RLatLon0.03_PT029H.grib2 2026-04-25 18:19 1.3M
20260425T12Z_MSC_CAPS_WindV_IsbL-0925_RLatLon0.03_PT029H.grib2 2026-04-25 18:19 1.4M
20260425T12Z_MSC_CAPS_WindV_IsbL-0950_RLatLon0.03_PT029H.grib2 2026-04-25 18:19 1.4M
20260425T12Z_MSC_CAPS_WindV_IsbL-0970_RLatLon0.03_PT029H.grib2 2026-04-25 18:19 1.4M
20260425T12Z_MSC_CAPS_WindV_IsbL-0985_RLatLon0.03_PT029H.grib2 2026-04-25 18:19 1.4M
20260425T12Z_MSC_CAPS_WindV_IsbL-1000_RLatLon0.03_PT029H.grib2 2026-04-25 18:19 1.8M
20260425T12Z_MSC_CAPS_WindV_IsbL-1015_RLatLon0.03_PT029H.grib2 2026-04-25 18:19 1.9M